Location: Aalen
(48.8330°N, 10.1000°E)
Time: 18:58:25
(UTC+02:00)

CAS-6 - Pass Details

Date: 30 March 2023
Orbit: 610 x 632 km, 97.9° (Epoch: 04 June)

Event Time Altitude Azimuth Distance (km) Brightness Sun altitude
Exits shadow 23:01:10 29° 16° (NNE) 1,161 ? -28.8°
Drops below altitude 10° 23:03:31 10° 358° (N) 2,006 ? -29.0°
Sets 23:05:48 0° 352° (N) 2,922 ? -29.3°
